Location: Wayah Bald
(35.1806°N, 83.5603°W)
Time: 16:21:21
(UTC-04:00)

Daily predictions for brighter satellites

Satellite Brightness Start Highest point End
(mag) Time Altitude Azimuth Time Altitude Azimuth Time Altitude Azimuth
CZ-4C R/B 3.1 20:35:22 10° NNW 20:42:47 88° ENE 20:50:53 10° SSE
FengYun 1-2 T 4.3 20:38:37 10° SSE 20:44:15 87° ENE 20:49:56 10° NNW
Cosmos 2026 Rocket 4.2 20:38:50 10° SSE 20:44:59 57° E 20:51:12 10° NNE
EXPRESS MD2 2.2 20:44:20 10° SW 20:46:32 87° NW 20:49:44 10° NE
Cosmos 1655 Rocket 4.3 20:44:03 10° SSE 20:49:57 46° E 20:55:56 10° NNE
GPS 2-05 Rocket1 2.7 20:46:43 10° WSW 20:50:07 81° S 20:53:25 10° E
Okean 3 4.3 20:50:10 10° NNW 20:54:21 55° W 20:58:31 10° S
Cosmos 2227 Rocket 3.9 20:49:32 10° NW 20:54:38 35° WSW 20:59:43 10° SSW
Cosmos 1633 2.6 20:52:40 10° S 20:56:11 54° E 20:59:44 10° NNE
Cosmos 2360 Rocket 4.0 20:57:12 10° E 20:57:26 10° E 20:57:39 10° E
Cosmos 1980 Rocket 2.4 20:52:15 10° SSW 20:57:52 80° WNW 21:03:28 10° NNE
Cosmos 839 Rocket 4.0 20:51:48 10° SSW 20:58:12 68° ESE 21:04:19 10° NNE
ATLAS 2AS CENTAUR R/B 3.8 20:54:04 10° SSE 21:00:07 27° ESE 21:06:30 10° NE
Cosmos 1452 Rocket 3.5 20:56:46 10° S 21:01:58 64° ESE 21:07:12 10° NNE
USA 186 2.1 21:01:26 10° SSE 21:04:37 48° ENE 21:07:54 10° N
CZ-2D R/B 3.2 21:01:30 10° SSE 21:05:22 79° ENE 21:09:14 10° N
Cosmos 1420 Rocket 4.2 21:01:23 10° S 21:06:17 46° ESE 21:11:13 10° NNE
NOSS 3-1 (A) 4.2 21:01:25 10° SW 21:06:58 56° NW 21:13:11 10° NNE
NOSS 2-3 (E) 4.4 21:07:01 10° S 21:11:07 34° ESE 21:15:37 10° NE
Cosmos 407 Rocket 3.6 21:06:05 10° NNW 21:11:28 90° ENE 21:16:46 10° SSE
Okean 2 Rocket 3.2 21:07:24 10° S 21:11:52 80° W 21:16:24 10° N
Atlas Centaur 2 3.0 21:04:34 10° WSW 21:12:42 61° S 21:18:37 15° ESE
Helios 1A 4.4 21:11:48 15° ESE 21:13:57 22° ENE 21:17:14 10° NNE
Cosmos 1190 Rocket 4.2 21:08:58 10° NNW 21:14:14 77° WSW 21:19:30 10° S
Cosmos 44 Rocket 3.5 21:13:08 10° NNW 21:17:46 51° ENE 21:21:13 18° SE
Resurs 1-3 3.9 21:24:14 10° S 21:28:35 70° WSW 21:32:59 10° NNW
BREEZE-M DEB (TANK) 3.8 21:25:31 10° WSW 21:29:39 31° NW 21:31:46 10° NNE
Cosmos 676 Rocket 4.0 21:25:12 10° NNW 21:30:33 88° ENE 21:35:26 12° SSE
Cosmos 2227 4.1 21:27:00 10° NNW 21:32:40 75° ENE 21:36:59 18° SSE
DELTA 2 R/B (1) 3.6 21:28:09 10° WNW 21:33:47 80° NNE 21:37:20 23° ESE
Uosat 12 SS-18 rocket 4.3 21:29:44 10° SSW 21:34:18 81° ESE 21:39:52 10° NNE
Cosmos 1023 Rocket 4.5 21:31:02 10° NNW 21:36:17 68° ENE 21:39:52 21° SSE
Meteor 1-11 Rocket 3.7 21:32:08 10° S 21:37:59 73° E 21:43:45 10° NNE
SeaSat 1 3.1 21:33:49 10° NNE 21:38:41 59° WNW 21:43:30 10° SW
Spot 2 Rocket 4.0 21:35:44 10° S 21:40:45 60° WSW 21:45:49 10° NNW
Delta 2 Rocket 4.1 21:36:56 10° SW 21:40:47 36° SSE 21:41:54 31° ESE
Cosmos 1602 4.3 21:40:02 10° SSW 21:43:48 57° W 21:47:35 10° N
NOSS 2-3 (C) 3.6 21:40:03 10° SSW 21:44:35 73° ESE 21:49:44 10° NE
Cosmos 1140 Rocket 3.4 21:41:26 10° NNW 21:46:41 85° ENE 21:50:02 23° SSE
Lacrosse 5 1.9 21:47:13 10° SSW 21:52:08 53° SE 21:57:04 10° NE
Cosmos 1954 Rocket 4.2 21:47:35 10° NNW 21:52:53 70° WSW 21:56:45 19° S
Cosmos 614 Rocket 3.8 21:49:34 10° NNW 21:54:43 86° ENE 21:57:22 29° SSE
MINOTAUR R/B 4.5 21:52:05 10° NNW 21:54:50 65° WSW 21:54:51 65° WSW
S3M 4.1 21:49:33 10° N 21:55:50 82° W 22:01:48 12° S
Resurs 01 Rocket 3.5 21:53:26 10° SSW 21:57:18 29° W 22:01:11 10° NW
Cosmos 1553 Rocket 4.2 21:52:46 10° NNW 21:58:54 70° W 22:04:55 10° S
Okean 1 Rocket 3.0 21:58:32 44° SE 21:59:37 58° E 22:03:54 10° NNE
Cosmos 1939 Rocket 3.2 21:57:18 23° S 21:59:38 61° W 22:03:34 10° NNW
H-2A R/B 3.5 22:00:55 20° ENE 22:00:55 20° ENE 22:04:29 10° NNE
Meteor 1-29 3.0 21:57:42 10° NNE 22:00:43 59° ENE 22:00:43 59° ENE
Cosmos 2315 Rocket 4.5 21:56:17 10° N 22:02:09 41° E 22:03:43 35° ESE
Cosmos 2266 Rocket 3.8 21:56:13 10° S 22:02:16 80° E 22:08:19 10° N
GENESIS II 4.2 21:58:48 10° NNW 22:02:39 57° ENE 22:02:54 56° ENE
Cosmos 44 3.6 22:00:42 10° NW 22:05:04 56° WSW 22:06:54 33° S
ARGOS 3.8 22:04:28 33° E 22:05:12 35° ENE 22:10:01 10° N
Cosmos 2322 Rocket 2.6 22:00:18 10° SSW 22:05:56 63° WNW 22:11:36 10° NNE
Cosmos 1300 Rocket 3.7 22:03:01 16° SSW 22:06:27 72° W 22:10:46 10° N
Cosmos 1741 Rocket 4.0 22:01:31 10° NNW 22:06:45 67° ENE 22:08:13 46° SE
ERS-1 Rocket 3.2 22:06:16 44° ESE 22:07:13 51° ENE 22:12:05 10° N
Cosmos 1536 3.1 22:06:19 21° SSW 22:08:56 67° W 22:13:00 10° N
Meteor 1-23 Rocket 4.2 22:03:30 10° N 22:09:01 61° E 22:10:35 44° SE
Envisat 4.2 22:05:07 10° SSW 22:09:50 39° W 22:14:36 10° NNW
Cosmos 2263 Rocket 2.4 22:05:01 10° NNW 22:10:37 55° ENE 22:11:56 45° ESE
Tiangong 1 3.2 22:08:43 10° NW 22:10:33 19° N 22:10:33 19° N
Helios 1B rocket 2.9 22:11:18 10° N 22:15:21 61° WNW 22:18:03 20° SSW
Lacrosse 5 rocket 1.5 22:12:01 10° NW 22:15:41 53° SW 22:15:50 53° SW
SL-16 R/B 3.0 22:10:28 10° SW 22:15:57 51° WNW 22:21:30 10° N
CZ-4B DEB 4.3 22:18:26 29° NNW 22:18:26 29° NNW 22:20:01 10° NNW
Cosmos 1025 Rocket 3.6 22:16:01 10° N 22:19:22 43° NE 22:19:22 43° NE
ATLAS 3B R/B 3.6 22:16:34 10° NNW 22:22:23 30° NE 22:23:52 28° ENE
Cosmos 2322 3.7 22:24:05 56° ESE 22:24:06 56° ESE 22:29:38 10° NNE
OAO 1 Rocket 4.3 22:20:40 10° WSW 22:25:59 72° SSE 22:26:22 68° SE
USA 245 4.3 22:27:23 51° ENE 22:27:23 51° ENE 22:31:54 10° N
GPS 2-05 Rocket1 4.3 22:24:32 10° W 22:26:29 32° W 22:26:29 32° W
Skynet4D Del rocket 4.5 22:25:14 10° WSW 22:31:07 38° S 22:31:07 38° S
COSMOS 2428 4.4 22:35:04 19° NE 22:35:04 19° NE 22:36:55 10° NE
YAOGAN 6 4.2 22:32:01 27° WSW 22:32:31 28° W 22:35:37 10° NW
Cosmos 1110 Rocket 3.9 22:37:25 58° SSW 22:38:28 82° WNW 22:43:39 10° NNE
Cosmos 2360 Rocket 2.1 22:37:59 34° SSW 22:40:35 83° WNW 22:46:15 10° NNE
MetOp-B 4.0 22:40:47 76° S 22:41:13 88° W 22:46:36 10° NNW
Cosmos 1932 4.5 22:35:58 10° NNW 22:42:25 65° ENE 22:43:03 61° E
Terra 3.8 22:45:43 18° NE 22:45:43 18° NE 22:47:34 10° NNE
SL-08 RB Rocket 4.4 22:51:31 50° N 22:51:31 50° N 22:54:55 10° N
ATLAS 2AS CENTAUR R/B 3.5 22:43:02 10° SW 22:50:33 61° NW 22:58:34 10° NNE
Cosmos 1331 Rocket 4.2 22:54:04 63° W 22:54:30 66° WNW 22:59:42 10° NNE
SPOT 1/Viking Rocket 4.0 23:02:52 55° N 23:02:52 55° N 23:07:01 10° N
Atlas Centaur 2 3.0 22:54:42 10° W 23:01:14 48° SW 23:01:14 48° SW
Cosmos 1238 Rocket 4.0 23:07:16 10° N 23:13:45 83° NNW 23:13:45 83° NNW
Aureole 3 Rocket 4.2 23:12:55 10° N 23:21:25 83° W 23:21:30 83° WSW
SPOT 5 4.2 23:25:52 37° WNW 23:25:52 37° WNW 23:29:13 10° NNW
Lacrosse 5 4.0 23:31:13 10° W 23:35:21 24° NW 23:39:29 10° NNE
H-2A R/B 3.5 23:41:34 32° WNW 23:41:34 32° WNW 23:44:45 10° NNW
NOSS 3-2 (A) 4.4 23:43:33 10° NNW 23:50:24 56° NE 23:50:24 56° NE
USA 238 DEB 4.0 23:43:59 10° NNW 23:49:51 63° NW 23:49:51 63° NW
USA 238 4.0 23:44:05 10° NNW 23:49:57 64° NW 23:49:57 64° NW
Cosmos 2278 Rocket 4.0 23:46:55 10° N 23:49:36 23° NNE 23:49:36 23° NNE
Cosmos 2263 Rocket 4.4 23:50:28 10° WNW 23:53:38 17° W 23:53:38 17° W
